Terminal Aerodrome Forecast
Issued by NWS Pittsburgh, PA

Current Version | Previous Version | Graphics & Text | Print | Product List | Glossary On
Versions: 1 2 3 4 5 6 7 8 9 10 11 12 13 14 15 16 17 18 19 20 21 22 23 24 25 26 27
000
FTUS41 KPBZ 222300
TAFPIT
TAF
KPIT 222320Z 2300/2406 33015KT P6SM FEW027 BKN045
     FM230800 33015KT P6SM BKN025
     FM231500 34015G24KT P6SM BKN040
     FM231800 33015G24KT P6SM SKC=

USA.gov is the U.S. government's official web portal to all federal, state and local government web resources and services.